Home   Weather   Sørumsand   Past weeks

Flag for Norway Past Weather in Sørumsand, Norway — Yesterday and Last 2 Weeks

45 °F

Drizzle. Fog.

Feels Like: 38 °F
Forecast: 37 / 49 °F
Wind: 14 mph from Southwest

Location: Oslo Gardermoen Airport

Current Time: Oct 26, 2016 at 11:22:02 PM

Latest Report: Oct 26, 2016 at 10:50 PM

Visibility: 3 mi

Pressure: 29.95 "Hg

Humidity: 100%

Dew Point: 45 °F

Location of SørumsandLocation

Past Weather in Sørumsand — Graph


Sørumsand Temperature Yesterday

Maximum temperature yesterday: 43 °F (at 12:50 PM)
Minimum temperature yesterday: 36 °F (at 8:20 PM)
Average temperature yesterday: 39 °F

High & Low Weather Summary for the Past Weeks

High45 °F (Oct 19, 12:20 PM)100% (Oct 17, 9:20 AM)30.60 "Hg (Oct 17, 9:20 AM)
Low30 °F (Oct 14, 3:50 AM)65% (Oct 13, 4:50 PM)29.95 "Hg (Oct 26, 9:50 PM)
Average38 °F85%30.34 "Hg
* Reported Oct 11 9:20 PM — Oct 26 9:50 PM, Sørumsand, Weather by CustomWeather, © 2016

Note: Actual official high and low records may vary slightly from our data, if they occured in-between our weather recording intervals... More about our weather records


Sørumsand Weather History for the Previous 24 Hours

Scroll right to see more
Time TempWeatherWind HumidityBarometerVisibility
9:50 PM
Wed, Oct 26
45 °FDrizzle. Fog.12 mph100%29.95 "Hg3 mi
9:20 PM45 °FDrizzle. Low clouds.13 mph93%29.98 "Hg4 mi
8:50 PM45 °FDrizzle. Low clouds.12 mph93%29.98 "Hg4 mi
8:20 PM45 °FDrizzle. Low clouds.12 mph93%29.98 "Hg5 mi
7:50 PM43 °FLight rain. Low clouds.12 mph100%29.98 "HgN/A
7:20 PM43 °FLight rain. Low clouds.10 mph93%30.01 "HgN/A
6:50 PM43 °FLight rain. Passing clouds.12 mph93%30.01 "HgN/A
6:20 PM43 °FLight rain. Low clouds.12 mph93%30.04 "HgN/A
5:50 PM41 °FSprinkles. Mostly cloudy.9 mph93%30.04 "HgN/A
5:20 PM41 °FSprinkles. Broken clouds.6 mph93%30.07 "HgN/A
4:50 PM41 °FSprinkles. Partly sunny.7 mph87%30.07 "HgN/A
4:20 PM41 °FSprinkles. Partly sunny.8 mph87%30.09 "HgN/A
3:50 PM39 °FPartly sunny.8 mph93%30.09 "HgN/A
3:20 PM39 °FBroken clouds.8 mph93%30.09 "HgN/A
2:50 PM41 °FBroken clouds.9 mph87%30.12 "HgN/A
2:20 PM39 °FBroken clouds.6 mph93%30.12 "HgN/A
1:50 PM37 °FBroken clouds.7 mph100%30.12 "HgN/A
1:20 PM37 °FBroken clouds.8 mph93%30.15 "HgN/A
12:50 PM36 °FPartly sunny.6 mph100%30.15 "HgN/A
12:20 PM36 °FLow clouds.7 mph100%30.15 "Hg6 mi
11:50 AM36 °FLow clouds.5 mph93%30.15 "Hg4 mi
11:20 AM34 °FFog.3 mph100%30.18 "Hg4 mi
10:50 AM34 °FFog.5 mph100%30.18 "Hg1 mi
10:20 AM34 °FFog.No wind93%30.18 "Hg1 mi
9:50 AM32 °FFog.No wind100%30.18 "Hg1 mi
9:20 AM32 °FIce fog.No wind93%30.18 "Hg1 mi
8:50 AM32 °FIce fog.No wind93%30.18 "Hg1 mi
8:20 AM32 °FChilly.No wind93%30.18 "Hg1 mi
7:50 AM30 °FIce fog.No wind100%30.21 "Hg1 mi
7:20 AM30 °FIce fog.No wind100%30.21 "Hg1 mi
6:50 AM30 °FIce fog.No wind100%30.21 "Hg1 mi
6:20 AM30 °FChilly.1 mph100%30.21 "Hg1 mi
5:50 AM30 °FIce fog.1 mph100%30.21 "Hg1 mi
5:20 AM32 °FIce fog.1 mph93%30.21 "Hg1 mi
4:50 AM32 °FChilly.2 mph93%30.21 "Hg1 mi
4:20 AM32 °FChilly.1 mph93%30.21 "Hg1 mi
3:50 AM32 °FChilly.No wind100%30.21 "Hg1 mi
3:20 AM32 °FIce fog.2 mph93%30.24 "Hg0 mi
2:50 AM32 °FIce fog.3 mph93%30.24 "Hg1 mi
2:20 AM32 °FFog.6 mph93%30.24 "Hg1 mi
1:50 AM32 °FSnow. Overcast.5 mph93%30.24 "Hg2 mi
1:20 AM34 °FSnow. Overcast.2 mph93%30.24 "Hg3 mi
12:50 AM34 °FSnow. Overcast.No wind93%30.24 "Hg5 mi
12:20 AM36 °FOvercast.2 mph93%30.24 "HgN/A
11:50 PM
Tue, Oct 25
36 °FOvercast.No wind93%30.24 "HgN/A
11:20 PM36 °FOvercast.No wind93%30.24 "HgN/A
Weather by CustomWeather, © 2016

See weather overviewHow to use our weather pages